When you browse on this site, cookies collect data to enhance your experience and personalize the content and advertising you see.
Visit our Privacy Policy to learn more. By continuing to use the site, you agree to this use of cookies and data.
  • în România
  • Lista ţărilor
  • Pe 7 zile
  • Temperatura apei
  • Hartă satelitară
  • Meteo pe hartă
  • Widget-uri
  • user-avatar
    Intrare

    Meteo pe oră la Kingston

    Astăzi, 21 Aprilie, Duminică

    Timp Temperatura Precipitaţii Vânt Presiune Umiditate
    00:00 +22°C° 0 mm 1 m/s 708 mmHg 90%
    01:00 +21°C° 0 mm 1 m/s 707 mmHg 91%
    02:00 +21°C° 0 mm 1 m/s 707 mmHg 91%
    03:00 +21°C° 0 mm 1 m/s 707 mmHg 91%
    04:00 +21°C° 0 mm 1 m/s 707 mmHg 91%
    05:00 +22°C° 0 mm 1 m/s 707 mmHg 88%
    06:00 +22°C° 0 mm 1 m/s 707 mmHg 86%
    07:00 +23°C° 0 mm 1 m/s 708 mmHg 83%
    08:00 +25°C° 0.1 mm 1 m/s 708 mmHg 74%
    09:00 +26°C° 0.1 mm 1 m/s 709 mmHg 64%
    10:00 +28°C° 0.1 mm 2 m/s 709 mmHg 54%
    11:00 +29°C° 0.3 mm 2 m/s 709 mmHg 53%
    12:00 +29°C° 0.3 mm 3 m/s 709 mmHg 52%
    13:00 +29°C° 0.3 mm 3 m/s 709 mmHg 51%
    14:00 +29°C° 0.2 mm 3 m/s 708 mmHg 52%
    15:00 +29°C° 0.2 mm 3 m/s 708 mmHg 54%
    16:00 +28°C° 0.2 mm 3 m/s 707 mmHg 55%
    17:00 +27°C° 0.4 mm 2 m/s 707 mmHg 62%
    18:00 +25°C° 0.4 mm 2 m/s 707 mmHg 70%
    19:00 +23°C° 0.4 mm 1 m/s 707 mmHg 77%
    20:00 +23°C° 0 mm 1 m/s 707 mmHg 79%
    21:00 +22°C° 0 mm 1 m/s 708 mmHg 81%
    22:00 +22°C° 0 mm 1 m/s 708 mmHg 82%
    23:00 +22°C° 0 mm 1 m/s 707 mmHg 83%

    Mâine, 22 Aprilie, Luni

    Timp Temperatura Precipitaţii Vânt Presiune Umiditate
    00:00 +22°C° 0 mm 1 m/s 707 mmHg 84%
    01:00 +21°C° 0 mm 1 m/s 707 mmHg 85%
    02:00 +21°C° 0 mm 1 m/s 706 mmHg 85%
    03:00 +21°C° 0 mm 1 m/s 706 mmHg 86%
    04:00 +21°C° 0 mm 1 m/s 706 mmHg 86%
    05:00 +21°C° 0 mm 1 m/s 706 mmHg 84%
    06:00 +22°C° 0 mm 1 m/s 706 mmHg 81%
    07:00 +23°C° 0 mm 1 m/s 707 mmHg 78%
    08:00 +25°C° 0 mm 1 m/s 707 mmHg 69%
    09:00 +27°C° 0 mm 1 m/s 708 mmHg 59%
    10:00 +29°C° 0 mm 1 m/s 709 mmHg 50%
    11:00 +30°C° 0.3 mm 1 m/s 708 mmHg 49%
    12:00 +30°C° 0.3 mm 2 m/s 708 mmHg 49%
    13:00 +31°C° 0.3 mm 2 m/s 708 mmHg 48%
    14:00 +30°C° 0.8 mm 2 m/s 707 mmHg 51%
    15:00 +29°C° 0.8 mm 1 m/s 706 mmHg 54%
    16:00 +28°C° 0.8 mm 1 m/s 706 mmHg 57%
    17:00 +27°C° 0.4 mm 1 m/s 705 mmHg 64%
    18:00 +25°C° 0.4 mm 1 m/s 705 mmHg 70%
    19:00 +23°C° 0.4 mm 1 m/s 705 mmHg 77%
    20:00 +23°C° 0 mm 1 m/s 706 mmHg 80%
    21:00 +22°C° 0 mm 1 m/s 706 mmHg 82%
    22:00 +22°C° 0 mm 1 m/s 706 mmHg 85%
    23:00 +22°C° 0 mm 1 m/s 706 mmHg 85%

    Poimâine, 23 Aprilie, Marţi

    Timp Temperatura Precipitaţii Vânt Presiune Umiditate
    00:00 +21°C° 0 mm 1 m/s 705 mmHg 84%
    01:00 +21°C° 0 mm 1 m/s 705 mmHg 84%
    02:00 +21°C° 0 mm 1 m/s 705 mmHg 85%
    03:00 +21°C° 0 mm 1 m/s 704 mmHg 86%
    04:00 +21°C° 0 mm 1 m/s 704 mmHg 87%
    05:00 +22°C° 0 mm 1 m/s 705 mmHg 85%
    06:00 +22°C° 0 mm 1 m/s 705 mmHg 82%
    07:00 +23°C° 0 mm 1 m/s 706 mmHg 79%
    08:00 +25°C° 0.1 mm 1 m/s 706 mmHg 72%
    09:00 +26°C° 0.1 mm 2 m/s 707 mmHg 64%
    10:00 +28°C° 0.1 mm 2 m/s 707 mmHg 56%
    11:00 +29°C° 0.3 mm 2 m/s 707 mmHg 55%
    12:00 +29°C° 0.3 mm 2 m/s 707 mmHg 53%
    13:00 +30°C° 0.3 mm 2 m/s 706 mmHg 52%
    14:00 +29°C° 0.4 mm 2 m/s 706 mmHg 54%
    15:00 +29°C° 0.4 mm 2 m/s 705 mmHg 56%
    16:00 +28°C° 0.4 mm 2 m/s 705 mmHg 59%
    17:00 +26°C° 0.1 mm 1 m/s 705 mmHg 65%
    18:00 +25°C° 0.1 mm 1 m/s 705 mmHg 72%
    19:00 +21°C° 0.1 mm 0 m/s 705 mmHg 79%
    20:00 +21°C° 0 mm 0 m/s 705 mmHg 82%
    21:00 +22°C° 0 mm 1 m/s 706 mmHg 84%
    22:00 +22°C° 0 mm 1 m/s 706 mmHg 87%
    23:00 +21°C° 0 mm 1 m/s 706 mmHg 88%

    24 Aprilie, Miercuri

    Timp Temperatura Precipitaţii Vânt Presiune Umiditate
    00:00 +21°C° 0 mm 1 m/s 705 mmHg 89%
    01:00 +21°C° 0 mm 1 m/s 705 mmHg 90%
    02:00 +21°C° 0 mm 1 m/s 705 mmHg 90%
    03:00 +21°C° 0 mm 1 m/s 704 mmHg 90%
    04:00 +21°C° 0 mm 1 m/s 704 mmHg 90%
    05:00 +21°C° 0 mm 1 m/s 705 mmHg 87%
    06:00 +22°C° 0 mm 1 m/s 705 mmHg 83%
    07:00 +23°C° 0 mm 1 m/s 706 mmHg 80%
    08:00 +25°C° 0 mm 1 m/s 706 mmHg 71%
    09:00 +27°C° 0 mm 1 m/s 707 mmHg 62%
    10:00 +29°C° 0 mm 1 m/s 708 mmHg 53%
    11:00 +29°C° 0.1 mm 2 m/s 707 mmHg 53%
    12:00 +29°C° 0.1 mm 2 m/s 707 mmHg 53%
    13:00 +30°C° 0.1 mm 3 m/s 706 mmHg 52%
    14:00 +29°C° 0.6 mm 2 m/s 706 mmHg 57%
    15:00 +28°C° 0.6 mm 2 m/s 706 mmHg 61%
    16:00 +27°C° 0.6 mm 2 m/s 705 mmHg 66%
    17:00 +26°C° 0.2 mm 2 m/s 705 mmHg 71%
    18:00 +25°C° 0.2 mm 1 m/s 705 mmHg 76%
    19:00 +23°C° 0.2 mm 1 m/s 706 mmHg 81%
    20:00 +23°C° 0 mm 1 m/s 706 mmHg 83%
    21:00 +22°C° 0 mm 1 m/s 706 mmHg 86%
    22:00 +20°C° 0 mm 0 m/s 706 mmHg 88%
    23:00 +22°C° 0 mm 1 m/s 706 mmHg 89%

    25 Aprilie, Joi

    Timp Temperatura Precipitaţii Vânt Presiune Umiditate
    00:00 +21°C° 0 mm 1 m/s 706 mmHg 90%
    01:00 +21°C° 0 mm 1 m/s 705 mmHg 91%
    02:00 +21°C° 0 mm 1 m/s 705 mmHg 91%
    03:00 +21°C° 0 mm 1 m/s 705 mmHg 91%
    04:00 +21°C° 0 mm 1 m/s 705 mmHg 92%
    05:00 +21°C° 0 mm 1 m/s 705 mmHg 89%
    06:00 +22°C° 0 mm 1 m/s 706 mmHg 86%
    07:00 +23°C° 0 mm 1 m/s 706 mmHg 83%
    08:00 +25°C° 0 mm 1 m/s 707 mmHg 74%
    09:00 +26°C° 0 mm 1 m/s 707 mmHg 64%
    10:00 +28°C° 0 mm 2 m/s 708 mmHg 55%
    11:00 +29°C° 0 mm 2 m/s 708 mmHg 54%
    12:00 +29°C° 0 mm 3 m/s 707 mmHg 53%
    13:00 +30°C° 0 mm 3 m/s 707 mmHg 51%
    14:00 +29°C° 0.1 mm 3 m/s 707 mmHg 54%
    15:00 +29°C° 0.1 mm 3 m/s 706 mmHg 57%
    16:00 +28°C° 0.1 mm 3 m/s 706 mmHg 60%
    17:00 +27°C° 0.1 mm 2 m/s 706 mmHg 66%
    18:00 +25°C° 0.1 mm 2 m/s 706 mmHg 73%
    19:00 +24°C° 0.1 mm 2 m/s 706 mmHg 80%
    20:00 +23°C° 0 mm 1 m/s 707 mmHg 82%
    21:00 +23°C° 0 mm 1 m/s 707 mmHg 85%
    22:00 +22°C° 0 mm 1 m/s 707 mmHg 87%
    23:00 +22°C° 0 mm 1 m/s 707 mmHg 88%

    26 Aprilie, Vineri

    Timp Temperatura Precipitaţii Vânt Presiune Umiditate
    00:00 +22°C° 0 mm 1 m/s 706 mmHg 89%
    01:00 +21°C° 0 mm 1 m/s 706 mmHg 90%
    02:00 +21°C° 0 mm 1 m/s 706 mmHg 91%
    03:00 +21°C° 0 mm 1 m/s 705 mmHg 91%
    04:00 +21°C° 0 mm 1 m/s 705 mmHg 92%
    05:00 +22°C° 0 mm 1 m/s 705 mmHg 89%
    06:00 +22°C° 0 mm 1 m/s 706 mmHg 85%
    07:00 +23°C° 0 mm 1 m/s 706 mmHg 82%
    08:00 +25°C° 0 mm 2 m/s 707 mmHg 71%
    09:00 +27°C° 0 mm 2 m/s 707 mmHg 61%
    10:00 +29°C° 0 mm 2 m/s 708 mmHg 50%
    11:00 +30°C° 0 mm 3 m/s 707 mmHg 48%
    12:00 +30°C° 0 mm 3 m/s 707 mmHg 46%
    13:00 +31°C° 0 mm 3 m/s 707 mmHg 44%
    14:00 +30°C° 0 mm 3 m/s 706 mmHg 47%
    15:00 +30°C° 0 mm 3 m/s 706 mmHg 50%
    16:00 +29°C° 0 mm 3 m/s 706 mmHg 53%
    17:00 +27°C° 0 mm 3 m/s 706 mmHg 62%
    18:00 +26°C° 0 mm 2 m/s 706 mmHg 71%
    19:00 +24°C° 0 mm 2 m/s 706 mmHg 80%
    20:00 +24°C° 0 mm 2 m/s 706 mmHg 83%
    21:00 +23°C° 0 mm 1 m/s 706 mmHg 85%
    22:00 +23°C° 0 mm 1 m/s 706 mmHg 88%
    23:00 +22°C° 0 mm 1 m/s 706 mmHg 89%
    Arată mai mult